CST,Max TemperatureF,Mean TemperatureF,Min TemperatureF,Max Dew PointF,MeanDew PointF,Min DewpointF,Max Humidity, Mean Humidity, Min Humidity, Max Sea Level PressureIn, Mean Sea Level PressureIn, Min Sea Level PressureIn, Max VisibilityMiles, Mean VisibilityMiles, Min VisibilityMiles, Max Wind SpeedMPH, Mean Wind SpeedMPH, Max Gust SpeedMPH,PrecipitationIn, CloudCover, Events, WindDirDegrees
2013-2-1,29,18,6,12,3,-2,76,57,37,30.52,30.39,30.20,10,10,10,16,8,21,0.00,3,,219
2013-2-2,39,33,27,30,22,14,82,65,48,30.18,30.14,30.04,10,10,10,15,9,21,0.01,7,,270
2013-2-3,43,37,30,28,19,12,85,57,29,30.25,30.12,29.95,10,10,10,31,12,42,0.00,0,,280
2013-2-4,54,39,24,31,26,19,85,63,41,29.99,29.89,29.81,10,9,5,20,9,22,0.00,2,,354
2013-2-5,55,39,23,31,27,21,96,69,41,30.14,30.00,29.93,10,8,4,21,8,26,0.00,1,,276
2013-2-6,60,44,28,31,28,25,92,59,26,30.20,30.09,29.98,10,10,8,20,11,24,0.00,1,,143
2013-2-7,49,42,35,47,40,28,93,71,49,30.13,29.95,29.88,10,6,1,23,11,27,0.28,8,Rain,234
2013-2-8,36,34,31,31,28,26,89,82,75,30.38,30.30,30.14,10,9,6,20,10,23,0.00,8,,29
2013-2-9,46,39,31,35,29,26,85,69,53,30.33,30.16,29.92,10,9,6,23,12,30,0.08,6,Rain,138
2013-2-10,62,50,38,51,38,24,93,61,29,29.90,29.68,29.51,10,8,2,37,21,47,0.37,6,Rain-Thunderstorm,177
2013-2-11,49,41,32,25,24,22,64,51,37,30.16,30.06,29.88,10,10,10,30,14,39,0.00,1,,272
2013-2-12,43,34,25,28,25,23,85,67,49,30.17,30.08,29.96,10,10,10,9,4,10,0.00,3,,15
2013-2-13,51,40,28,33,28,24,85,63,41,29.95,29.88,29.83,10,10,9,21,10,25,0.00,0,,241
2013-2-14,52,43,33,32,29,25,85,64,42,30.11,29.97,29.83,10,10,10,20,10,25,0.00,1,,280
2013-2-15,39,31,22,26,17,8,72,51,29,30.33,30.26,30.12,10,10,10,20,12,23,0.00,3,,323
2013-2-16,37,28,18,20,14,11,80,58,35,30.33,30.24,30.16,10,10,10,15,6,21,0.00,2,,285
2013-2-17,56,42,28,29,22,17,63,47,30,30.16,30.00,29.82,10,10,10,20,11,26,0.00,2,,142
2013-2-18,57,43,29,49,36,18,93,71,49,30.00,29.70,29.49,10,9,1,31,18,40,0.20,6,Rain-Thunderstorm,237
2013-2-19,32,27,22,18,11,8,68,52,36,30.35,30.20,30.01,10,10,10,25,16,35,0.00,0,,295
2013-2-20,28,22,15,14,10,7,73,62,50,30.44,30.34,30.25,10,10,10,15,8,18,0.00,4,,46
2013-2-21,29,26,22,27,21,13,92,76,60,30.27,29.97,29.76,10,3,0,25,14,32,1.47,8,Fog-Rain-Snow-Thunderstorm,97
2013-2-22,33,27,20,31,23,15,92,78,63,30.09,29.94,29.78,10,8,2,21,11,25,0.02,7,Snow,251
2013-2-23,32,22,11,17,15,8,96,73,49,30.09,30.05,30.01,10,8,3,12,4,12,0.00,0,,243
2013-2-24,47,32,17,25,20,15,84,61,37,30.10,30.04,29.99,10,10,6,12,8,16,0.00,0,,121
2013-2-25,44,36,28,32,28,22,96,73,49,30.04,29.84,29.61,10,7,1,29,16,38,0.46,5,Rain-Snow,65
2013-2-26,35,34,32,32,32,30,96,93,89,29.76,29.51,29.37,10,3,0,28,15,34,0.80,8,Fog-Rain-Snow-Thunderstorm,1
2013-2-27,33,31,29,30,28,25,100,89,78,29.96,29.85,29.73,10,3,1,24,14,29,0.13,8,Snow,288
2013-2-28,33,31,29,27,25,23,85,77,69,30.16,30.07,29.94,10,9,2,17,11,22,T,8,Snow,301